Location: Pine Mountain Observatory
(43.7910°N, 120.9377°W)
Time: 10:28:33
(UTC-07:00)

Cosmos 1867 - Visible Passes

Search period start: 20 April 2014 00:00
Search period end: 30 April 2014 00:00
Orbit: 776 x 801 km, 65.0° (Epoch: 19 April)

Date Brightness Start Highest point End Pass type
(mag) Time Alt. Az. Time Alt. Az. Time Alt. Az.
20 Apr 4.8 02:35:19 34° E 02:35:19 34° E 02:39:25 10° NE visible
20 Apr 4.4 04:15:59 29° W 04:18:00 40° NW 04:23:09 10° NNE visible
21 Apr 5.3 02:04:35 23° E 02:04:35 23° E 02:07:31 10° NE visible
21 Apr 4.0 03:45:14 44° W 03:46:19 51° NW 03:51:39 10° NNE visible
21 Apr 5.7 05:28:28 10° WNW 05:31:14 14° NNW 05:34:00 10° N visible
22 Apr 5.8 01:33:48 16° E 01:33:48 16° E 01:35:27 10° ENE visible
22 Apr 3.6 03:14:27 66° WNW 03:14:40 67° NW 03:20:08 10° NNE visible
22 Apr 5.6 04:55:55 10° WNW 04:59:19 17° NNW 05:02:44 10° N visible
23 Apr 6.1 01:02:58 10° ENE 01:02:58 10° ENE 01:03:02 10° ENE visible
23 Apr 3.7 02:43:38 73° NNE 02:43:38 73° NNE 02:48:34 10° NE visible
23 Apr 5.4 04:24:17 13° WNW 04:27:27 20° NW 04:31:25 10° N visible
24 Apr 4.2 02:12:46 52° ENE 02:12:46 52° ENE 02:16:57 10° NE visible
24 Apr 5.2 03:53:25 19° WNW 03:55:37 24° NW 04:00:02 10° NNE visible
25 Apr 4.8 01:41:52 36° ENE 01:41:52 36° ENE 01:45:16 10° NE visible
25 Apr 4.8 03:22:30 27° WNW 03:23:50 30° NW 03:28:37 10° NNE visible
26 Apr 5.2 01:10:55 25° ENE 01:10:55 25° ENE 01:13:31 10° NE visible
26 Apr 4.5 02:51:34 37° WNW 02:52:05 37° NW 02:57:10 10° NNE visible
26 Apr 6.0 04:35:38 10° NW 04:37:19 11° NNW 04:39:00 10° N visible
27 Apr 5.6 00:39:56 18° ENE 00:39:56 18° ENE 00:41:39 10° NE visible
27 Apr 4.2 02:20:34 48° NW 02:20:34 48° NW 02:25:41 10° NNE visible
27 Apr 5.9 04:02:47 10° NW 04:05:22 13° NNW 04:07:57 10° N visible
28 Apr 5.9 00:08:54 13° ENE 00:08:54 13° ENE 00:09:38 10° ENE visible
28 Apr 4.1 01:49:33 55° NNW 01:49:33 55° NNW 01:54:10 10° NNE visible
28 Apr 5.8 03:30:11 10° WNW 03:33:27 16° NNW 03:36:43 10° N visible
29 Apr 4.2 01:18:28 53° NNE 01:18:28 53° NNE 01:22:37 10° NNE visible
29 Apr 5.6 02:59:06 15° WNW 03:01:34 19° NW 03:05:24 10° N visible
